www.pogodaiklimat.ru

АРХИВ ПОГОДЫ в Атланте

Время (UTC), дата Ветер
(напр.,м/с)
 
Видим.   Явления Облачность Т
(С)
Тd
(С)
f
(%)
Тe
(С)
Тes
(С)
Комфортность

P
(гПа)

Po
(гПа)
Тmin
(С)
Tmax
(С)
R
(мм)
SD
(см)
06:52 17.08 ЮЗ  16 км    10/10 180 м  +23.0  +21.0  89  +31  +31  очень
душно 
1020.1  983.9         
07:52 17.08 ЮЗ  16 км    10/10 180 м  +23.0  +21.0  89  +31  +31  очень
душно 
1020.4  984.2         
08:52 17.08 З  14 км    10/10 210 м  +23.3  +21.1  87  +31  +31  очень
душно 
1021.2  984.8         
09:52 17.08 ЮЗ  16 км    10/10 0 м  +23.0  +21.0  89  +31  +31  очень
душно 
1021.4  984.8         
10:04 17.08 ЮЗ  16 км    10/10 0 м  +23.0  +21.0  89  +31  +31  очень
душно 
  985.2         
10:23 17.08 ЮЗ  16 км  слабый дождь  8/5 360 м
[средняя верхняя] 
+23.3  +21.1  87  +31  +31  очень
душно 
  985.2         
10:52 17.08 Ю  13 км    8/5 300 м
[средняя верхняя] 
+23.3  +21.1  87  +31  +31  очень
душно 
1021.6  985.2  +22.8  +23.9     
11:02 17.08 ЮЗ  16 км    10/8 300 м
[средняя верхняя] 
+23.9  +21.1  84  +30  +30  очень
душно 
  985.2         
11:52 17.08 ЮЗ  16 км    10/10 360 м  +23.9  +21.1  84  +30  +30  очень
душно 
1022.3  985.8         
12:52 17.08 ЮЗ  16 км    8/8 360 м  +26.0  +22.0  79  +34  +34  очень
душно 
1021.9  985.5         
13:34 17.08 Ю  16 км    8/8 450 м  +26.0  +21.0  74  +33  +34  очень
душно 
  985.5         
13:52 17.08 ЮЗ  16 км    8/8 450 м  +26.0  +21.0  74  +33  +34  очень
душно 
1022.0  985.5         
14:52 17.08 ЮЗ  16 км    8/8 540 м  +27.2  +21.7  72  +35  +36  очень
душно 
1021.6           
15:50 17.08 ЮЗ  16 км    8/8 600 м  +28.0  +21.0  66  +35  +36  очень
душно 
           
15:52 17.08 ЮЗ  16 км    8/8 600 м  +27.8  +21.1  67  +35  +37  очень
душно 
1020.9  984.5         
16:52 17.08 Ю  16 км    8/5 960 м
[средняя] 
+30.0  +21.7  61  +38  +41  очень
душно 
1020.4  984.2  +23.3  +30.6     
17:52 17.08 Ю  16 км    8/8 990 м
[верхняя] 
+28.9  +21.7  65  +37  +39  очень
душно 
  983.2         
17:59 17.08 штиль  11 км  слабый дождь  8/8 990 м  +27.8  +22.8  74  +37  +42  очень
душно 
           
18:52 17.08 Ю  16 км    8/5 810 м
[средняя] 
+28.9  +21.1  63  +36  +38  очень
душно 
1019.1  982.9         
19:00 17.08 Ю  16 км  гроза  8/2 960 м
[средняя] 
+28.3  +21.1  65  +36  +38  очень
душно 
  982.9         
19:31 17.08 ЮЗ  н/о    8/2 1020 м
[средняя] 
+28.9  +20.6  61  +36  +39  очень
душно 
  982.6         
19:52 17.08 Ю  16 км    8/2 1020 м
[средняя] 
+29.4  +21.1  61  +37  +40  очень
душно 
1018.5        1.5   
20:52 17.08 Ю  16 км    8/2 900 м
[средняя верхняя] 
+27.8  +21.1  67  +35  +36  очень
душно 
  982.2         
21:52 17.08 ЮЗ  16 км    8/2 900 м
[средняя верхняя] 
+28.9  +21.1  63  +36  +38  очень
душно 
  981.6         
22:52 17.08 Ю  16 км    5/2 900 м
[верхняя] 
+27.8  +20.6  65  +35  +35  очень
душно 
1018.1  981.6  +27.2  +30.6     
23:52 17.08 ЮЗ  16 км    5/2 900 м
[верхняя] 
+26.1  +21.7  77  +34  +34  очень
душно 
  982.2         
00:52 18.08 Ю  16 км    5/5 600 м
[верхняя] 
+26.1  +21.7  77  +34  +34  очень
душно 
1019.4  983.2         
01:52 18.08 ЮЗ  16 км    8/2 600 м
[средняя] 
+25.0  +21.7  82  +32  +32  очень
душно 
1019.9  983.5         
02:36 18.08 ЮЗ  16 км  слабый дождь  8/8 390 м
[средняя] 
+24.4  +21.7  85  +31  +31  очень
душно 
  983.2         
02:52 18.08 ЮЗ  16 км    8/5 390 м
[средняя] 
+24.4  +21.7  85  +31  +31  очень
душно 
1019.5  983.2         
03:52 18.08 ЮЗ  16 км    8/2 300 м
[средняя верхняя] 
+24.0  +21.0  83  +30  +30  очень
душно 
1019.2  982.9         
04:37 18.08 ЮЗ  16 км    8/8 270 м
[средняя верхняя] 
+23.3  +21.1  87  +31  +31  очень
душно 
  982.9         
04:52 18.08 ЮЗ  16 км    8/8 270 м
[средняя верхняя] 
+23.3  +21.1  87  +31  +31  очень
душно 
1019.0  982.6  +23.3  +27.8     
05:52 18.08 ЮЗ  16 км    8/8 210 м
[средняя] 
+23.3  +21.1  87  +31  +31  очень
душно 
1018.9  982.6         
06:27 18.08 З  16 км    5/5 270 м
[средняя] 
+23.0  +21.0  89  +31  +31  очень
душно 
  982.2         
06:52 18.08 З  16 км    8/8 270 м  +23.0  +21.0  89  +31  +31  очень
душно 
1018.8  982.6         
06:54 18.08 З  16 км    8/8 270 м  +23.3  +21.1  87  +31  +31  очень
душно 
  982.6         
07:52 18.08 З  16 км    10/10 270 м  +23.0  +21.0  89  +31  +31  очень
душно 
1018.6  982.2         
08:04 18.08 ЮЗ  16 км    10/10 300 м  +23.3  +21.1  87  +31  +31  очень
душно 
  982.2         
08:47 18.08 ЮЗ  14 км    8/8 240 м  +23.0  +21.0  89  +31  +31  очень
душно 
  982.2         
08:52 18.08 ЮЗ  14 км    8/8 240 м  +23.3  +21.1  87  +31  +31  очень
душно 
1018.4  981.9         
09:31 18.08 ЮЗ  16 км    8/5 270 м
[средняя верхняя] 
+23.0  +21.0  89  +31  +31  очень
душно 
  982.2         
09:48 18.08 ЮЗ  16 км    8/8 240 м
[средняя верхняя] 
+23.0  +21.0  89  +31  +31  очень
душно 
  982.2         
09:52 18.08 ЮЗ  16 км    8/8 270 м
[средняя верхняя] 
+23.3  +21.1  87  +31  +31  очень
душно 
1018.6  982.2         
10:52 18.08 ЮЗ  16 км    10/10 270 м  +24.0  +22.0  89  +31  +31  очень
душно 
1018.8  982.6  +22.8  +23.9     
11:21 18.08 ЮЗ  16 км    10/10 300 м  +24.0  +22.0  89  +31  +31  очень
душно 
  982.6         
11:52 18.08 ЮЗ  13 км  слабый дождь  10/10 300 м  +23.9  +21.7  88  +31  +31  очень
душно 
  982.6         
12:52 18.08 ЮЗ  16 км    10/10 0 м  +25.6  +21.7  79  +33  +33  очень
душно 
1018.4  982.2         

 

Местоположение метеостанции Hartsfield-Jackson Atlanta International Airport: широта 33.6403 долгота -84.4269 высота над уровнем моря 313 м.

В архиве по умолчанию представлена погода в Атланте за последние 1-2 суток. Обновление информации о фактической погоде в базе происходит ежечасно! Архивные данные за месяц целиком и за предыдущие месяцы Вы можете получить, выбрав интересующий диапазон дат из раскрывающегося списка и нажав кнопку "Ввод!".

Внимание! Архив погоды МЕТАР в базе сайта в настоящее время начинается c 1 января 2013 г. Нет смысла пытаться выбрать более раннюю дату.

Внимание! Время в таблицах - всемирное. Для получения местного времени необходимо прибавить поправку, которая в Атланте равна -5 ч.

Ветер - указаны скорость ветра в м/с и направление, откуда дует ветер: С - северный, СВ - северо-восточный, В - восточный, ЮВ - юго-восточный, Ю - южный, ЮЗ - юго-западный, З - западный, СЗ - северо-западный.
Видимость - горизонтальная дальность видимости в метрах или километрах. При видимости от 1 до 10 км при отсутствии осадков обычно наблюдается дымка, при ухудшении видимости до 1 км и менее - туман. В сухую погоду видимость может ухудшаться дымом, пылью или мглою.
Атмосферные явления - указаны явления, наблюдавшиеся в указанный момент времени.
Облачность - указаны через наклонную черту верхняя и нижняя облачность в баллах и высота нижней границы облаков в метрах. Внимание: облачность, как и прочие метеорологические величины в США измеряются автоматическими метеостанциями. Указанные значения в баллах носят условный характер и показывают процент времени, в течение которого, в среднем, лазерный луч высотомера отражался от облаков обратно.
T - Температура воздуха - температура, измеренная на высоте 2 м над землей.
Td - Температура точки росы - температура, при понижении до которой содержащийся в воздухе водяной пар достигнет насыщения.
f - Относительная влажность воздуха - влажноcть воздуха, измеренная на высоте 2 м над землей.
Te - Эффективная температура - температура, которую ощущает одетый по сезону человек в тени. Характеристика душности погоды. При расчете учитывается влияние влажности воздуха и скорости ветра на теплоощущения человека.
Tes - Эффективная температура на солнце - температура, которую ощущает человек, с поправкой на солнечный нагрев. Характеристика знойности погоды. Зависит от высоты солнца над горизонтом, облачности и скорости ветра. Ночью, в пасмурную погоду, а также при ветре 12 м/с и более поправка равна нулю.
P - Атмосферное давление - приведенное к уровню моря атмосферное давление.
Po - Атмосферное давление - измеренное на уровне метеостанции атмосферное давление.
Tmin - Минимальная температура - минимум температуры воздуха на высоте 2 м над землей.
Tmax - Максимальная температура - максимум температуры воздуха на высоте 2 м над землей.
R - Количество осадков - Количество выпавших осадков за 3 или 6 часов, мм.
SD - Снежный покров - Высота снежного покрова, см.